• In Italy
  • List of Countries
  • For 7 days
  • Water Temperature
  • Satellite Maps
  • Weather Map
  • Weather Widgets
  • user-avatar
    Login

    Hourly Weather Satif

    Today, 18 November, Saturday

    Time Temperature Precipitation Wind Pressure Humidity
    00:00 +6°C° 0 mm 1 mps 672 mmHg 82%
    01:00 +6°C° 0 mm 1 mps 671 mmHg 82%
    02:00 +6°C° 0 mm 1 mps 671 mmHg 83%
    03:00 +5°C° 0 mm 1 mps 671 mmHg 83%
    04:00 +5°C° 0 mm 1 mps 671 mmHg 83%
    05:00 +5°C° 0 mm 1 mps 671 mmHg 83%
    06:00 +5°C° 0 mm 1 mps 671 mmHg 83%
    07:00 +6°C° 0 mm 1 mps 672 mmHg 76%
    08:00 +8°C° 0 mm 1 mps 672 mmHg 69%
    09:00 +10°C° 0 mm 1 mps 673 mmHg 62%
    10:00 +9°C° 0 mm 2 mps 673 mmHg 60%
    11:00 +10°C° 0 mm 2 mps 673 mmHg 59%
    12:00 +12°C° 0 mm 2 mps 673 mmHg 57%
    13:00 +12°C° 0 mm 2 mps 673 mmHg 58%
    14:00 +12°C° 0 mm 2 mps 673 mmHg 59%
    15:00 +11°C° 0 mm 3 mps 673 mmHg 60%
    16:00 +10°C° 0 mm 2 mps 673 mmHg 66%
    17:00 +9°C° 0 mm 2 mps 673 mmHg 72%
    18:00 +8°C° 0 mm 2 mps 673 mmHg 78%
    19:00 +9°C° 0 mm 1 mps 673 mmHg 82%
    20:00 +8°C° 0 mm 1 mps 673 mmHg 85%
    21:00 +8°C° 0 mm 1 mps 673 mmHg 88%
    22:00 +7°C° 0 mm 1 mps 673 mmHg 89%
    23:00 +7°C° 0 mm 1 mps 673 mmHg 90%

    Tomorrow, 19 November, Sunday

    Time Temperature Precipitation Wind Pressure Humidity
    00:00 +7°C° 0 mm 1 mps 673 mmHg 91%
    01:00 +6°C° 0 mm 1 mps 673 mmHg 91%
    02:00 +6°C° 0 mm 1 mps 672 mmHg 91%
    03:00 +6°C° 0 mm 1 mps 672 mmHg 91%
    04:00 +6°C° 0 mm 1 mps 672 mmHg 91%
    05:00 +5°C° 0 mm 1 mps 672 mmHg 91%
    06:00 +5°C° 0 mm 1 mps 672 mmHg 91%
    07:00 +7°C° 0 mm 1 mps 673 mmHg 85%
    08:00 +8°C° 0 mm 1 mps 674 mmHg 79%
    09:00 +10°C° 0 mm 1 mps 675 mmHg 73%
    10:00 +10°C° 0 mm 1 mps 675 mmHg 66%
    11:00 +10°C° 0 mm 2 mps 675 mmHg 59%
    12:00 +12°C° 0 mm 2 mps 675 mmHg 52%
    13:00 +12°C° 0 mm 2 mps 675 mmHg 50%
    14:00 +13°C° 0 mm 2 mps 675 mmHg 49%
    15:00 +13°C° 0 mm 2 mps 674 mmHg 47%
    16:00 +10°C° 0 mm 2 mps 674 mmHg 54%
    17:00 +10°C° 0 mm 1 mps 674 mmHg 60%
    18:00 +9°C° 0 mm 1 mps 674 mmHg 66%
    19:00 +9°C° 0 mm 1 mps 674 mmHg 69%
    20:00 +8°C° 0 mm 1 mps 674 mmHg 71%
    21:00 +6°C° 0 mm 0 mps 674 mmHg 74%
    22:00 +6°C° 0 mm 0 mps 674 mmHg 74%
    23:00 +6°C° 0 mm 0 mps 674 mmHg 74%

    Day after tomorrow, 20 November, Monday

    Time Temperature Precipitation Wind Pressure Humidity
    00:00 +5°C° 0 mm 0 mps 674 mmHg 75%
    01:00 +5°C° 0 mm 0 mps 674 mmHg 74%
    02:00 +5°C° 0 mm 0 mps 674 mmHg 74%
    03:00 +4°C° 0 mm 0 mps 674 mmHg 74%
    04:00 +4°C° 0 mm 0 mps 674 mmHg 72%
    05:00 +5°C° 0 mm 1 mps 674 mmHg 71%
    06:00 +5°C° 0 mm 1 mps 674 mmHg 70%
    07:00 +7°C° 0 mm 1 mps 675 mmHg 60%
    08:00 +8°C° 0 mm 0 mps 676 mmHg 51%
    09:00 +10°C° 0 mm 0 mps 677 mmHg 41%
    10:00 +11°C° 0 mm 0 mps 677 mmHg 36%
    11:00 +12°C° 0 mm 0 mps 677 mmHg 30%
    12:00 +13°C° 0 mm 0 mps 677 mmHg 25%
    13:00 +14°C° 0 mm 1 mps 676 mmHg 26%
    14:00 +15°C° 0 mm 1 mps 676 mmHg 26%
    15:00 +15°C° 0 mm 1 mps 676 mmHg 27%
    16:00 +13°C° 0 mm 1 mps 676 mmHg 33%
    17:00 +11°C° 0 mm 1 mps 675 mmHg 40%
    18:00 +10°C° 0 mm 1 mps 675 mmHg 46%
    19:00 +10°C° 0 mm 1 mps 675 mmHg 47%
    20:00 +9°C° 0 mm 1 mps 675 mmHg 47%
    21:00 +9°C° 0 mm 1 mps 675 mmHg 48%
    22:00 +9°C° 0 mm 1 mps 675 mmHg 48%
    23:00 +8°C° 0 mm 1 mps 675 mmHg 49%

    21 November, Tuesday

    Time Temperature Precipitation Wind Pressure Humidity
    00:00 +8°C° 0 mm 1 mps 675 mmHg 49%
    01:00 +7°C° 0 mm 2 mps 675 mmHg 50%
    02:00 +6°C° 0 mm 2 mps 674 mmHg 51%
    03:00 +6°C° 0 mm 2 mps 674 mmHg 53%
    04:00 +6°C° 0 mm 2 mps 674 mmHg 54%
    05:00 +6°C° 0 mm 2 mps 674 mmHg 55%
    06:00 +6°C° 0 mm 1 mps 674 mmHg 56%
    07:00 +7°C° 0 mm 2 mps 674 mmHg 51%
    08:00 +9°C° 0 mm 2 mps 675 mmHg 46%
    09:00 +12°C° 0 mm 2 mps 675 mmHg 41%
    10:00 +13°C° 0 mm 2 mps 675 mmHg 37%
    11:00 +14°C° 0 mm 2 mps 675 mmHg 33%
    12:00 +15°C° 0 mm 2 mps 675 mmHg 29%
    13:00 +15°C° 0 mm 2 mps 675 mmHg 30%
    14:00 +15°C° 0 mm 2 mps 675 mmHg 30%
    15:00 +15°C° 0 mm 2 mps 675 mmHg 31%
    16:00 +13°C° 0 mm 1 mps 674 mmHg 37%
    17:00 +12°C° 0 mm 1 mps 674 mmHg 43%
    18:00 +10°C° 0 mm 1 mps 674 mmHg 49%
    19:00 +10°C° 0 mm 1 mps 674 mmHg 49%
    20:00 +9°C° 0 mm 1 mps 674 mmHg 48%
    21:00 +9°C° 0 mm 1 mps 674 mmHg 48%
    22:00 +9°C° 0 mm 1 mps 673 mmHg 48%
    23:00 +8°C° 0 mm 1 mps 673 mmHg 48%

    22 November, Wednesday

    Time Temperature Precipitation Wind Pressure Humidity
    00:00 +8°C° 0 mm 1 mps 673 mmHg 47%
    01:00 +8°C° 0 mm 1 mps 673 mmHg 48%
    02:00 +7°C° 0 mm 1 mps 672 mmHg 48%
    03:00 +7°C° 0 mm 1 mps 672 mmHg 48%
    04:00 +7°C° 0 mm 1 mps 672 mmHg 48%
    05:00 +6°C° 0 mm 1 mps 672 mmHg 48%
    06:00 +6°C° 0 mm 1 mps 671 mmHg 48%
    07:00 +8°C° 0 mm 1 mps 672 mmHg 43%
    08:00 +10°C° 0 mm 1 mps 673 mmHg 38%
    09:00 +12°C° 0 mm 2 mps 674 mmHg 33%
    10:00 +13°C° 0 mm 2 mps 674 mmHg 29%
    11:00 +15°C° 0 mm 2 mps 674 mmHg 26%
    12:00 +16°C° 0 mm 2 mps 674 mmHg 22%
    13:00 +16°C° 0 mm 2 mps 674 mmHg 23%
    14:00 +16°C° 0 mm 2 mps 674 mmHg 23%
    15:00 +16°C° 0 mm 2 mps 673 mmHg 24%
    16:00 +14°C° 0 mm 2 mps 673 mmHg 28%
    17:00 +12°C° 0 mm 2 mps 673 mmHg 32%
    18:00 +10°C° 0 mm 2 mps 673 mmHg 36%
    19:00 +9°C° 0 mm 2 mps 673 mmHg 36%
    20:00 +9°C° 0 mm 2 mps 673 mmHg 37%
    21:00 +8°C° 0 mm 2 mps 673 mmHg 37%
    22:00 +8°C° 0 mm 2 mps 673 mmHg 38%
    23:00 +7°C° 0 mm 2 mps 673 mmHg 38%

    23 November, Thursday

    Time Temperature Precipitation Wind Pressure Humidity
    00:00 +7°C° 0 mm 3 mps 672 mmHg 39%
    01:00 +7°C° 0 mm 3 mps 672 mmHg 39%
    02:00 +7°C° 0 mm 3 mps 672 mmHg 39%
    03:00 +7°C° 0 mm 3 mps 672 mmHg 39%
    04:00 +7°C° 0 mm 2 mps 672 mmHg 40%
    05:00 +7°C° 0 mm 2 mps 672 mmHg 41%
    06:00 +7°C° 0 mm 2 mps 673 mmHg 42%
    07:00 +8°C° 0 mm 2 mps 673 mmHg 42%
    08:00 +9°C° 0 mm 3 mps 674 mmHg 41%
    09:00 +11°C° 0 mm 3 mps 675 mmHg 40%
    10:00 +12°C° 0 mm 3 mps 675 mmHg 37%
    11:00 +14°C° 0 mm 2 mps 675 mmHg 34%
    12:00 +15°C° 0 mm 2 mps 675 mmHg 31%
    13:00 +15°C° 0 mm 2 mps 675 mmHg 31%
    14:00 +15°C° 0 mm 2 mps 675 mmHg 32%
    15:00 +15°C° 0 mm 2 mps 675 mmHg 32%
    16:00 +14°C° 0 mm 2 mps 675 mmHg 37%
    17:00 +12°C° 0 mm 1 mps 675 mmHg 41%
    18:00 +11°C° 0 mm 1 mps 675 mmHg 46%
    19:00 +10°C° 0 mm 1 mps 675 mmHg 46%
    20:00 +10°C° 0 mm 1 mps 675 mmHg 47%
    21:00 +10°C° 0 mm 1 mps 675 mmHg 47%
    22:00 +9°C° 0 mm 1 mps 675 mmHg 47%
    23:00 +9°C° 0 mm 1 mps 675 mmHg 47%
    Show more